Location: Friedrichshafen
(47.6598°N, 9.4819°E)
Time: 02:29:54
(UTC+02:00)

ISS - Visible Passes

Search period start: 19 July 2018 00:00
Search period end: 29 July 2018 00:00
Orbit: 402 x 408 km, 51.6° (Epoch: 19 July)

Date Brightness Start Highest point End Pass type
(mag) Time Alt. Az. Time Alt. Az. Time Alt. Az.
19 Jul -2.6 01:30:56 10° W 01:34:07 43° N 01:37:17 10° ENE visible
19 Jul -2.7 03:07:46 10° WNW 03:10:59 47° NNE 03:14:11 10° E visible
19 Jul -3.7 04:44:19 10° WNW 04:47:33 54° SSW 04:50:47 10° SE visible
19 Jul -3.5 23:02:20 10° SW 23:05:26 41° SSE 23:08:34 10° ENE visible
20 Jul -3.0 00:38:41 10° W 00:41:55 52° NNW 00:45:09 10° ENE visible
20 Jul -2.5 02:15:37 10° WNW 02:18:47 41° N 02:21:55 10° ENE visible
20 Jul -3.9 03:52:10 10° WNW 03:55:29 85° SSW 03:58:46 10° ESE visible
20 Jul -2.8 22:10:42 10° SSW 22:13:27 25° SE 22:16:14 10° E visible
20 Jul -3.6 23:46:28 10° WSW 23:49:44 70° NNW 23:53:01 10° ENE visible
21 Jul -2.4 01:23:24 10° WNW 01:26:32 39° N 01:29:40 10° ENE visible
21 Jul -3.5 03:00:04 10° WNW 03:03:21 67° NNE 03:06:38 10° ESE visible
21 Jul -2.9 04:36:48 10° W 04:39:39 27° SW 04:42:30 10° SSE visible
21 Jul -4.0 22:54:19 10° WSW 22:57:35 80° SSE 23:00:54 10° ENE visible
22 Jul -2.5 00:31:08 10° W 00:34:17 41° N 00:37:26 10° ENE visible
22 Jul -3.0 02:07:55 10° WNW 02:11:09 50° NNE 02:14:22 10° E visible
22 Jul -3.6 03:44:29 10° WNW 03:47:39 44° SSW 03:50:48 10° SE visible
22 Jul -3.7 22:02:19 10° SW 22:05:30 50° SSE 22:08:42 10° ENE visible
22 Jul -2.8 23:38:50 10° W 23:42:02 48° NNW 23:45:15 10° ENE visible
23 Jul -2.6 01:15:44 10° WNW 01:18:54 42° N 01:20:47 20° ENE visible
23 Jul -1.7 02:52:16 10° WNW 02:53:16 18° WNW 02:53:16 18° WNW visible
23 Jul -3.3 22:46:33 10° W 22:49:48 62° NNW 22:53:05 10° ENE visible
24 Jul -2.4 00:23:30 10° WNW 00:26:38 39° N 00:29:04 15° ENE visible
24 Jul -2.0 02:00:07 10° WNW 02:01:39 25° WNW 02:01:39 25° WNW visible
24 Jul -3.8 21:54:20 10° WSW 21:57:37 88° NNW 22:00:55 10° ENE visible
24 Jul -2.4 23:31:12 10° WNW 23:34:20 40° N 23:37:29 10° ENE visible
25 Jul -2.9 01:07:57 10° WNW 01:10:39 47° NNW 01:10:39 47° NNW visible
25 Jul -2.7 22:38:53 10° W 22:42:03 45° N 22:45:14 10° ENE visible
26 Jul -2.7 00:15:44 10° WNW 00:18:55 44° N 00:19:52 34° NE visible
26 Jul -1.0 01:52:16 10° WNW 01:52:29 12° WNW 01:52:29 12° WNW visible
26 Jul -3.1 21:46:32 10° W 21:49:46 55° NNW 21:53:01 10° ENE visible
26 Jul -2.5 23:23:29 10° WNW 23:26:37 40° N 23:29:10 14° ENE visible
27 Jul -2.1 01:00:03 10° WNW 01:01:46 28° WNW 01:01:46 28° WNW visible
27 Jul -2.4 22:31:10 10° WNW 22:34:17 39° N 22:37:24 10° ENE visible
28 Jul -3.4 00:07:51 10° WNW 00:11:07 61° NNE 00:11:08 61° NNE visible
28 Jul -2.6 21:38:48 10° W 21:41:57 42° N 21:45:07 10° ENE visible
28 Jul -2.9 23:15:37 10° WNW 23:18:49 47° NNE 23:20:30 24° ENE visible
